This demonstration page uses our WeatherBlox Daily Observations layout. Learn more.

Left ArrowRight Arrow

39.51506, -84.39828

Hourly Observations for September 24, 2015

Temp ( °F °C ) Dew Point ( °F °C ) Humidity (%) Winds ( mph kmh ) Pressure ( in mb ) Visibility ( mi km ) Precip ( " mm )
12:15 am 00:15 Clear 57 13.9 51 10.8 82 82 NNE 3 6 30.21 1023 10 16.0934 0 0
12:35 am 00:35 Clear 57 13.8 52 10.9 83 83 N 5 7 30.21 1023 10 16.0934 0 0
12:55 am 00:55 Clear 60 15.3 53 11.6 79 79 NNE 5 7 30.21 1023 10 16.0934 0 0
1:15 am 01:15 Clear 60 15.3 53 11.5 78 78 NNE 3 6 30.21 1023 10 16.0934 0 0
1:35 am 01:35 Clear 57 13.8 51 10.5 81 81 N 5 7 30.21 1023 10 16.0934 0 0
1:55 am 01:55 Clear 59 14.9 52 11.3 79 79 N 5 7 30.21 1023 10 16.0934 0 0
2:15 am 02:15 Clear 60 15.3 53 11.5 78 78 Calm 30.21 1023 10 16.0934 0 0
2:35 am 02:35 Clear 60 15.3 53 11.9 80 80 N 5 7 30.21 1023 10 16.0934 0 0
2:55 am 02:55 Clear 59 15.2 54 12 81 81 NNE 3 6 30.24 1024 10 16.0934 0 0
3:15 am 03:15 Clear 57 13.8 51 10.7 82 82 NNE 5 7 30.24 1024 10 16.0934 0 0
3:35 am 03:35 Clear 57 14 51 10.8 81 81 NNE 3 6 30.24 1024 10 16.0934 0 0
3:55 am 03:55 Clear 57 13.8 51 10.8 82 82 Calm 30.21 1023 10 16.0934 0 0
4:15 am 04:15 Clear 57 13.8 52 11 83 83 NNE 3 6 30.21 1023 10 16.0934 0 0
4:35 am 04:35 Clear 57 13.8 52 11.1 84 84 NNE 3 6 30.21 1023 10 16.0934 0 0
4:55 am 04:55 Clear 57 13.8 52 11.2 84 84 NNE 5 7 30.21 1023 10 16.0934 0 0
5:15 am 05:15 Clear 57 13.8 52 11.2 84 84 NNE 5 7 30.21 1023 10 16.0934 0 0
5:35 am 05:35 Clear 57 13.8 53 11.5 86 86 Calm 30.24 1024 10 16.0934 0 0
5:55 am 05:55 Clear 57 13.8 53 11.6 87 87 N 3 6 30.24 1024 10 16.0934 0 0
6:15 am 06:15 Clear 57 13.8 53 11.7 87 87 NNE 3 6 30.24 1024 10 16.0934 0 0
7:15 am 07:15 Clear 57 13.8 53 11.7 87 87 Calm 30.24 1024 7 11.26538 0 0
7:35 am 07:35 Sunny with Mist and Fog 55 12.5 51 10.5 88 88 Calm 30.24 1024 5 8.0467 0 0
7:55 am 07:55 Sunny with Mist and Fog 55 12.8 52 10.9 88 88 Calm 30.24 1024 5 8.0467 0 0
8:15 am 08:15 Sunny 57 13.8 54 12 89 89 Calm 30.24 1024 7 11.26538 0 0
8:35 am 08:35 Sunny 60 15.3 56 13.3 88 88 Calm 30.27 1025 10 16.0934 0 0
8:55 am 08:55 Sunny 61 16 55 13 83 83 Calm 30.27 1025 10 16.0934 0 0
9:15 am 09:15 Sunny 63 17.2 56 13.3 78 78 NE 3 6 30.27 1025 10 16.0934 0 0
9:35 am 09:35 Sunny 65 18.4 56 13.6 74 74 NE 5 7 30.24 1024 10 16.0934 0 0
9:55 am 09:55 Sunny 68 20 58 14.4 70 70 NE 3 6 30.24 1024 10 16.0934 0 0
10:15 am 10:15 Sunny 69 20.8 57 14.1 66 66 Calm 30.24 1024 10 16.0934 0 0
10:35 am 10:35 Sunny 70 20.9 55 12.6 59 59 NE 3 6 30.24 1024 10 16.0934 0 0
10:55 am 10:55 Sunny 74 23.6 56 13.2 52 52 NE 5 7 30.24 1024 10 16.0934 0 0
11:15 am 11:15 Sunny 75 23.7 51 10.6 44 44 E 6 9 30.24 1024 10 16.0934 0 0
11:35 am 11:35 Sunny 75 23.8 50 10.2 42 42 E 3 6 30.21 1023 10 16.0934 0 0
11:55 am 11:55 Sunny 78 25.3 49 9.6 37 37 E 10 17 30.21 1023 10 16.0934 0 0
12:15 pm 12:15 Sunny 78 25.8 48 8.8 34 34 NNE 5 7 30.21 1023 10 16.0934 0 0
12:35 pm 12:35 Sunny 80 26.5 45 7.4 30 30 ENE 10 17 30.21 1023 10 16.0934 0 0
12:55 pm 12:55 Sunny 80 26.7 43 6.1 27 27 ENE 9 15 30.21 1023 10 16.0934 0 0
1:15 pm 13:15 Sunny 81 27.1 43 6.2 26 26 ENE 5 7 30.21 1023 10 16.0934 0 0
1:35 pm 13:35 Sunny 81 27.2 41 5 24 24 NE 6 9 30.21 1023 10 16.0934 0 0
1:55 pm 13:55 Sunny 81 27.3 39 4.1 23 23 Calm 30.21 1023 10 16.0934 0 0
2:15 pm 14:15 Sunny 82 28 38 3.6 21 21 E 7 11 30.21 1023 10 16.0934 0 0
2:35 pm 14:35 Sunny 82 28 36 2.4 19 19 E 6 9 30.18 1022 10 16.0934 0 0
2:55 pm 14:55 Sunny 82 28 36 2.2 19 19 ENE 8 13 30.18 1022 10 16.0934 0 0
3:15 pm 15:15 Sunny 82 28 34 1 17 17 NE 5 7 30.18 1022 10 16.0934 0 0
3:35 pm 15:35 Sunny 82 28 35 1.5 18 18 NE 6 9 30.18 1022 10 16.0934 0 0
3:55 pm 15:55 Sunny 83 28.4 36 2.2 18 18 NNE 3 6 30.18 1022 10 16.0934 0 0
4:15 pm 16:15 Sunny 83 28.6 37 2.5 19 19 NE 5 7 30.15 1021 10 16.0934 0 0
4:35 pm 16:35 Sunny 83 28.6 34 1.3 17 17 NE 5 7 30.15 1021 10 16.0934 0 0
4:55 pm 16:55 Sunny 83 28.6 33 0.8 16 16 ENE 7 11 30.15 1021 10 16.0934 0 0
5:15 pm 17:15 Sunny 83 28.6 32 0 16 16 ENE 6 9 30.15 1021 10 16.0934 0 0
5:35 pm 17:35 Sunny 83 28.6 32 0 16 16 ESE 7 11 30.15 1021 10 16.0934 0 0
5:55 pm 17:55 Sunny 83 28.4 32 0.2 16 16 E 7 11 30.15 1021 10 16.0934 0 0
6:15 pm 18:15 Sunny 82 28 34 0.9 17 17 ENE 6 9 30.15 1021 10 16.0934 0 0
6:35 pm 18:35 Sunny 82 27.7 36 2.3 19 19 ENE 6 9 30.15 1021 10 16.0934 0 0
6:55 pm 18:55 Sunny 80 26.5 38 3.4 23 23 ENE 6 9 30.15 1021 10 16.0934 0 0
7:15 pm 19:15 Sunny 78 25.5 43 6 29 29 Calm 30.15 1021 10 16.0934 0 0
7:35 pm 19:35 Clear 74 23.6 52 11.1 45 45 Calm 30.15 1021 10 16.0934 0 0
7:55 pm 19:55 Clear 69 20.8 56 13.2 62 62 N 3 6 30.15 1021 10 16.0934 0 0
8:15 pm 20:15 Clear 69 20.8 54 12.1 58 58 Calm 30.15 1021 10 16.0934 0 0
8:35 pm 20:35 Clear 69 20.8 55 12.6 60 60 Calm 30.15 1021 10 16.0934 0 0
8:55 pm 20:55 Clear 67 19.5 55 12.6 65 65 N 3 6 30.15 1021 10 16.0934 0 0
9:15 pm 21:15 Clear 64 17.9 53 11.9 68 68 N 3 6 30.15 1021 7 11.26538 0 0
9:35 pm 21:35 Clear 64 17.9 54 12.3 70 70 Calm 30.15 1021 7 11.26538 0 0
9:55 pm 21:55 Hazy 63 17.2 54 12.3 73 73 Calm 30.21 1023 4 6.43736 0 0
10:15 pm 22:15 Clear 62 16.6 54 12.2 75 75 NNE 3 6 30.21 1023 10 16.0934 0 0
10:35 pm 22:35 Clear 64 17.8 55 12.6 72 72 Calm 30.18 1022 10 16.0934 0 0
10:55 pm 22:55 Hazy 62 16.9 54 12.1 74 74 Calm 30.21 1023 3 4.82802 0 0
11:15 pm 23:15 Clear 62 16.9 53 11.6 71 71 Calm 30.21 1023 10 16.0934 0 0
11:35 pm 23:35 Clear 62 16.6 53 11.8 73 73 NNE 3 6 30.21 1023 10 16.0934 0 0
11:55 pm 23:55 Clear 62 16.7 52 11.2 70 70 NNE 3 6 30.21 1023 10 16.0934 0 0

Powered by AerisWeather